User: anonymous   Login
Location: Unspecified
(0.0000°N, 0.0000°E)
Time: 07:54:08
(UTC+00:00)
Language:

COSMOS 2482 - Orbit

View from above orbital plane
View from above orbital plane
View from above satellite
View from above satellite

Ground track
Ground track

The orbit data is extracted from the following two-line orbital elements,

1 39057U 13001A   17328.40211173 +.00000034 +00000-0 +17503-3 0  9995
2 39057 082.5021 005.4422 0027189 008.2489 351.9032 12.42888338220340
Epoch (UTC): 24 November 2017 09:39:02
Eccentricity: 0.0027189
inclination: 82.5021°
perigee height: 1473 km
apogee height: 1516 km
right ascension of ascending node: 5.4422°
argument of perigee: 8.2489°
revolutions per day: 12.42888338
mean anomaly at epoch: 351.9032°
orbit number at epoch: 22034

The dashed part of the orbit path shows where the satellite is in the earth's shadow,  

DLR